Theta_e
302 302 301 301 303 304 300 296 285 301 307 294 295 290 293 296 296 301 299 298 296 295 295 292 291 291 293 296 295 291 294 291 283 286 290 291 289 288 289 283 281 282 281 284
304 302 303 301 303 304 300 290 291 302 303 286 288 292 293 296 295 295 296 295 297 297 294 291 293 294 298 297 297 294 295 288 279 283 287 288 287 289 290 290 285 281 278 283
305 304 303 302 303 304 300 291 284 291 295 294 289 288 289 289 296 295 297 295 296 294 292 296 292 293 297 298 298 298 298 290 286 282 287 291 285 287 290 288 281 284 284 287
305 304 304 303 303 304 299 291 285 289 282 284 288 290 289 287 288 294 295 293 294 293 289 291 290 294 293 296 297 296 295 286 288 290 291 292 291 290 290 289 288 284 287 287
304 304 304 304 304 304 294 288 285 288 286 288 285 288 285 286 288 289 288 289 292 293 290 291 288 291 292 292 294 293 295 286 288 285 290 291 288 291 290 290 290 290 290 289
302 303 304 304 304 302 292 294 294 290 286 284 284 284 286 286 288 290 291 290 289 288 290 292 292 293 294 293 291 292 290 287 285 281 285 286 283 286 289 290 293 292 287 292
301 302 303 303 304 302 295 293 292 286 280 283 284 286 287 286 288 286 289 291 289 290 293 292 291 290 290 290 291 293 288 286 285 281 283 276 285 291 292 290 292 294 295 296
299 300 302 303 304 303 296 296 291 287 280 284 284 285 285 287 288 286 288 289 290 291 288 281 276 276 278 279 286 289 291 287 282 279 277 282 284 287 286 285 287 293 294 296
298 299 299 301 303 304 298 296 296 291 283 282 286 284 285 280 282 278 278 283 288 289 285 281 268 267 274 272 278 286 288 289 282 278 267 264 280 286 291 291 281 291 292 292
297 297 298 299 300 302 299 295 298 291 284 285 286 283 283 286 283 281 277 279 279 286 277 270 269 268 277 268 267 273 278 276 279 279 277 280 284 287 290 277 280 284 288 289
295 296 297 298 299 298 300 295 298 292 285 285 288 289 284 283 285 278 279 279 279 279 274 272 272 269 274 272 276 275 275 271 273 274 275 274 285 285 283 286 285 285 286 288
294 295 295 297 297 299 297 293 297 297 288 285 291 291 292 291 290 285 279 279 277 281 275 274 274 269 273 271 266 281 272 279 276 280 278 287 287 287 292 291 289 288 289 289
294 295 294 295 297 298 297 293 295 293 285 285 284 284 290 292 291 293 281 282 286 282 285 278 274 269 276 269 272 273 277 279 275 275 279 282 285 289 290 291 289 289 289 289
293 294 294 294 295 297 298 288 294 292 287 281 281 289 287 291 291 290 290 288 287 287 283 277 273 271 280 273 276 274 278 278 274 275 280 280 282 284 286 286 287 288 289 289
293 294 294 294 294 296 296 292 294 295 287 279 279 282 286 290 289 288 289 287 284 280 279 273 271 276 275 275 278 275 280 279 276 276 281 281 283 285 285 284 285 286 287 288
293 294 294 294 294 296 291 284 291 295 292 282 276 283 280 284 287 287 285 285 282 280 279 275 276 282 276 268 267 279 282 283 284 282 285 285 286 287 285 285 286 286 286 287
293 293 294 294 294 293 285 284 287 297 292 283 276 275 280 284 283 281 281 284 284 283 281 275 276 278 279 271 272 279 281 282 282 284 283 281 282 283 286 285 285 283 282 283
292 293 293 293 294 294 287 292 296 295 286 284 276 273 276 284 280 279 284 282 282 281 277 274 275 276 274 269 277 280 280 280 281 283 281 280 281 282 282 281 281 279 281 282
292 292 293 290 288 284 285 294 296 292 286 278 276 272 270 280 279 280 280 280 275 279 273 275 276 269 268 275 278 279 275 274 272 272 272 274 275 277 277 277 275 276 279 280
292 289 283 281 284 293 294 289 283 281 280 281 277 274 271 279 277 273 273 273 271 270 273 277 269 268 278 279 270 267 266 265 265 264 267 265 266 267 269 269 271 272 274 278
286 282 281 286 294 287 282 278 277 276 274 278 276 273 273 279 274 271 276 268 270 263 267 269 263 264 275 264 262 263 263 262 262 260 262 263 264 264 265 265 266 267 269 273
286 285 286 285 281 277 273 271 274 274 271 274 275 275 277 276 278 271 270 266 268 262 266 266 259 269 259 257 257 258 258 257 256 257 258 259 261 261 260 260 261 263 265 267
286 281 278 276 273 270 268 265 268 268 271 272 275 273 275 275 277 272 271 265 263 265 260 261 266 259 255 253 254 254 255 252 252 253 255 256 256 256 255 257 257 260 262 262
277 274 268 270 269 270 267 264 266 269 273 275 275 271 274 274 271 272 267 268 268 260 257 261 258 251 249 251 252 249 252 252 253 252 254 255 255 254 255 255 257 259 259 260
269 271 263 260 259 259 259 261 260 262 266 273 273 273 275 270 272 272 268 263 258 262 262 256 251 250 250 250 250 249 251 253 253 254 254 253 252 252 251 254 256 257 257 258
259 254 262 262 262 260 259 260 257 259 263 266 270 268 266 264 267 262 259 261 260 263 248 249 251 248 248 248 248 249 250 251 252 252 252 252 250 251 252 254 255 255 256 257
257 254 254 255 256 253 254 256 257 260 262 263 265 261 260 264 259 259 261 262 252 246 246 248 249 248 248 248 251 249 248 250 249 251 252 253 254 254 254 253 254 255 256 256
Wind_Speed
13 12 9 9 6 5 1 1 3 0 4 5 3 5 8 2 3 3 3 2 6 12 8 9 5 6 1 7 3 1 2 2 5 8 3 3 2 6 7 5 3 3 3 17
17 15 14 11 8 12 2 2 1 1 2 8 10 7 14 4 6 7 6 4 5 2 5 5 7 8 6 9 7 4 3 2 3 3 1 3 3 4 5 7 3 8 7 15
19 18 17 14 12 11 3 1 4 3 3 5 5 11 13 15 8 11 8 4 10 6 9 7 4 5 5 7 3 11 7 4 6 7 6 4 3 3 4 6 3 16 14 22
19 20 20 17 16 12 3 3 4 4 6 8 9 5 8 16 13 8 6 7 11 11 10 12 10 7 4 3 13 5 6 7 9 11 13 11 8 8 13 14 14 9 19 17
18 19 23 21 17 15 4 4 3 2 3 5 12 10 8 10 17 10 14 12 9 10 11 8 3 7 6 5 3 6 7 3 8 9 12 12 15 15 19 20 23 22 28 26
17 20 21 24 22 18 3 2 4 2 4 3 8 15 10 6 3 9 7 11 8 8 5 6 9 6 5 4 2 4 5 5 4 12 4 6 9 21 17 21 21 21 21 24
17 18 21 24 27 25 5 4 2 2 4 7 11 3 15 11 5 6 1 5 3 5 5 6 6 5 1 3 6 4 4 3 3 5 3 11 9 2 11 16 16 13 15 16
18 18 16 23 28 30 10 5 5 4 5 7 6 9 4 10 10 2 5 5 4 5 4 4 4 4 5 6 10 13 12 5 3 5 5 9 17 16 4 6 14 7 12 18
23 19 20 17 17 30 14 9 6 4 2 8 13 9 6 4 6 3 2 2 4 1 3 3 6 6 5 3 4 10 14 15 9 7 5 7 18 14 7 3 11 7 5 7
25 24 22 21 19 18 14 5 13 6 4 4 4 7 8 5 4 4 4 3 3 3 3 3 4 5 6 4 5 4 4 3 15 14 13 8 10 12 2 6 9 3 3 5
24 27 26 25 20 21 18 10 15 9 4 4 7 3 3 3 5 5 4 5 2 2 4 5 5 4 6 3 5 5 8 6 5 4 8 14 3 4 7 3 2 2 4 6
25 26 25 28 25 20 21 7 11 12 4 1 10 7 10 6 9 6 2 5 4 5 4 3 3 2 2 6 4 6 5 8 6 9 7 3 2 3 2 3 4 5 6 12
25 28 25 26 26 25 20 7 12 11 5 2 3 7 7 4 5 7 6 1 4 2 2 2 2 3 4 4 6 1 4 1 3 4 9 11 3 4 1 4 7 8 7 11
27 30 29 27 27 27 22 6 9 10 5 5 4 2 8 9 6 6 5 5 4 6 3 2 2 3 2 3 3 3 6 3 2 5 9 4 6 5 6 4 8 10 9 7
28 30 28 29 30 28 16 6 11 14 10 5 5 4 4 11 8 8 6 6 6 3 3 2 4 2 3 2 2 6 5 9 7 10 8 4 9 7 9 9 10 12 13 13
26 30 28 27 25 27 5 3 11 17 7 5 5 2 5 6 8 9 7 5 3 4 4 3 3 3 4 2 5 13 17 10 8 15 16 12 14 14 6 7 11 10 9 13
27 30 28 29 27 16 6 3 7 24 8 5 5 4 1 8 5 2 2 4 2 3 2 3 2 2 6 3 12 24 16 9 13 16 14 12 12 13 8 7 9 5 5 7
28 26 28 28 26 20 6 9 23 20 7 4 7 4 4 6 5 5 3 4 3 4 4 1 4 1 3 5 14 19 14 11 15 17 8 7 8 7 6 2 2 6 10 10
30 28 28 14 12 7 5 17 32 4 4 6 5 9 6 5 4 4 2 3 3 3 5 4 5 3 6 12 14 14 5 2 6 11 8 7 6 8 7 6 6 6 11 10
31 18 9 8 6 22 28 14 8 4 3 3 4 5 7 9 5 3 4 3 4 4 6 4 4 5 15 12 7 7 8 9 9 7 8 9 9 9 12 12 10 11 14 16
12 7 5 2 27 8 3 5 5 5 3 4 3 5 12 2 6 5 2 4 3 4 6 8 4 5 6 8 8 9 9 8 5 3 7 8 11 13 14 15 12 12 14 15
9 7 5 4 5 4 6 5 4 5 6 5 8 10 7 3 4 5 0 4 3 5 2 5 4 4 5 6 6 9 9 8 8 6 9 8 9 9 11 12 13 13 12 12
5 3 3 3 2 4 5 6 4 5 4 5 12 10 6 3 1 4 4 5 5 3 4 6 7 3 4 3 4 5 6 5 6 7 7 8 7 7 6 10 9 12 10 6
3 3 4 1 4 4 4 4 5 2 7 14 11 6 5 3 3 4 6 4 5 2 2 9 3 2 2 3 3 3 8 7 7 8 8 9 7 7 7 6 8 8 5 5
6 5 4 5 2 2 1 1 4 4 3 6 7 5 5 3 5 2 5 3 4 7 7 3 1 1 2 3 3 4 6 8 8 8 8 8 7 6 5 5 8 5 3 3
6 12 4 3 4 4 6 7 5 7 3 2 5 5 5 3 5 4 7 9 8 7 3 2 1 2 3 3 4 5 6 6 7 6 5 5 4 4 3 5 6 7 7 8
8 6 5 4 6 6 3 5 4 6 3 3 4 6 7 3 4 1 4 7 4 4 2 1 3 1 3 4 5 5 5 7 5 5 4 4 4 3 4 7 7 8 8 9
Wind_Direction
226 222 218 234 262 190 239 285 227 286 223 183 192 200 216 309 251 135 272 30 276 209 169 180 196 221 82 31 81 152 276 301 219 199 119 41 263 221 193 167 230 244 168 267
221 219 222 213 221 187 176 222 243 89 240 200 213 209 231 241 223 215 201 226 235 272 176 186 218 185 169 155 140 164 332 335 61 331 115 54 225 214 235 272 44 212 162 261
220 219 212 223 201 209 245 196 198 161 226 284 238 203 218 215 213 242 237 249 239 235 229 212 200 212 146 159 107 120 107 158 220 225 108 49 149 192 237 201 227 250 244 269
235 216 208 216 206 190 186 203 238 184 191 231 228 253 199 212 205 211 199 239 231 225 225 224 219 211 120 141 145 132 129 199 211 250 282 293 275 281 298 283 278 263 268 268
241 229 211 208 209 185 183 195 201 290 331 208 191 219 231 223 210 167 220 236 211 232 241 223 207 225 215 209 122 150 149 227 205 255 244 248 263 258 242 239 247 244 251 254
254 238 223 211 206 193 164 182 312 333 223 234 195 212 209 233 225 228 204 215 228 256 274 46 74 55 73 102 127 169 172 147 159 257 208 238 255 240 237 244 242 237 246 260
259 252 234 221 202 209 209 136 114 221 242 205 216 224 210 227 224 218 202 95 262 104 125 80 64 85 131 242 217 177 144 138 195 262 101 233 250 199 231 240 258 259 266 273
252 250 246 232 212 206 212 143 157 168 240 228 229 237 204 213 226 198 131 59 25 131 79 69 46 354 7 245 223 214 207 191 236 243 210 293 306 283 292 290 276 248 244 249
248 248 249 240 247 207 214 201 181 157 185 221 221 209 187 170 187 75 72 37 323 12 107 119 176 194 201 251 290 226 215 211 212 256 235 236 262 270 243 10 273 351 34 16
242 245 245 242 244 248 198 194 203 176 190 225 212 207 203 133 131 117 125 146 41 24 119 131 165 227 180 212 173 162 150 196 222 233 241 260 253 254 357 277 264 265 22 333
241 241 239 245 223 247 238 202 188 188 184 197 184 235 184 162 165 149 162 83 322 154 163 156 200 169 218 173 222 169 176 163 188 210 237 259 247 7 192 240 174 206 230 233
246 243 241 235 243 234 235 212 193 183 184 208 212 206 223 210 202 135 223 167 151 173 156 187 155 212 154 167 245 205 242 209 195 182 204 227 177 223 135 139 169 271 271 289
243 246 248 240 237 236 212 250 172 173 143 96 127 194 189 123 200 170 137 229 153 100 125 125 206 201 123 188 228 293 289 94 202 33 276 275 320 311 181 217 250 267 261 269
247 241 239 241 241 233 231 211 188 182 126 188 196 189 186 154 165 175 158 129 169 130 101 125 168 166 178 242 226 174 205 67 223 271 286 346 291 275 303 298 284 280 284 270
248 238 235 238 240 232 231 210 210 182 161 147 132 37 229 178 165 174 152 142 126 110 105 133 210 210 70 242 15 251 212 247 252 261 268 239 275 263 287 284 279 279 285 286
233 232 229 232 234 231 185 228 205 184 142 115 156 102 153 160 165 185 186 169 141 124 146 196 228 224 129 211 232 248 254 248 262 273 274 267 268 277 262 263 265 264 268 273
234 227 227 230 227 216 181 186 211 172 124 135 112 120 16 127 108 127 102 144 129 134 147 212 202 208 190 200 251 259 265 258 263 267 281 276 259 268 253 252 269 291 276 272
229 215 228 231 234 220 221 203 177 145 121 142 144 113 114 164 144 132 126 156 123 162 188 250 174 175 161 243 246 261 267 253 252 254 295 304 314 303 299 343 322 299 285 287
222 217 220 225 211 195 144 193 161 130 121 144 134 141 141 142 129 99 130 147 154 163 199 199 129 211 212 226 244 260 329 355 313 316 298 297 296 311 328 337 322 272 283 290
211 205 206 193 176 124 150 174 156 139 176 143 125 101 134 161 130 129 131 153 179 178 220 133 166 240 244 249 58 53 32 24 8 354 328 352 321 330 316 307 300 290 290 292
186 193 172 171 159 147 201 132 141 118 144 139 123 110 133 237 146 135 173 162 164 156 242 150 220 250 211 41 36 21 14 3 353 323 289 285 284 297 303 302 300 300 294 291
160 162 122 168 131 126 108 116 150 151 142 144 125 130 107 117 119 107 45 160 93 200 148 106 254 236 68 34 3 351 352 340 329 315 303 302 300 297 295 296 296 297 298 292
127 79 64 86 169 126 126 130 147 124 145 156 139 124 122 102 95 96 132 124 193 85 93 209 221 114 65 17 343 332 320 319 311 313 303 300 292 293 276 296 291 300 290 293
98 88 82 173 110 73 92 118 108 81 136 137 126 111 122 141 95 128 114 201 96 115 202 225 198 88 330 320 317 343 324 316 313 304 306 307 304 305 301 309 302 302 314 330
59 33 62 58 127 18 32 104 96 14 346 124 106 65 89 82 104 159 115 91 203 196 222 187 89 18 354 334 329 313 317 320 315 314 316 308 306 297 296 330 332 342 352 36
55 30 67 354 87 43 24 28 43 7 351 43 59 112 94 154 140 114 199 146 204 221 159 171 82 50 330 310 299 291 286 290 293 292 288 292 303 312 327 358 13 19 34 49
40 46 22 335 55 55 17 8 14 335 348 102 108 92 186 93 78 225 178 200 183 162 153 134 124 131 289 289 299 301 306 306 303 305 312 315 330 353 42 41 22 34 45 58